Lapse_Rate
6.7 6.8 6.9 7.0 7.0 7.0 6.8 6.7 6.5 6.3 6.2 6.2 6.2 6.2 6.2 6.2 6.3 6.3 6.2 6.3 6.3 6.4 6.4 6.4 6.4 6.3 6.2 6.3 6.2 6.7 6.5 6.5 6.6 6.8 6.7 6.8 6.8 6.3 6.4 6.7 6.8 6.7 6.9 7.0 7.2 7.6 7.5
6.8 6.9 6.8 6.9 7.1 7.0 6.7 6.6 6.5 6.4 6.3 6.2 6.2 6.2 6.2 6.2 6.3 6.3 6.3 6.4 6.4 6.4 6.4 6.4 6.3 6.2 6.2 6.2 6.3 6.4 6.6 6.6 6.7 6.8 6.8 6.6 6.6 6.6 6.7 6.7 6.6 7.0 6.8 6.8 7.0 7.1 7.4
6.9 7.0 6.9 7.0 7.0 6.9 6.7 6.6 6.5 6.5 6.4 6.3 6.2 6.2 6.2 6.2 6.3 6.4 6.5 6.5 6.5 6.4 6.4 6.3 6.2 6.1 5.9 5.7 6.1 6.2 6.2 6.3 6.5 6.5 6.7 6.4 6.2 6.6 6.2 6.7 6.6 6.4 6.8 7.0 7.1 7.1 7.1
6.9 6.9 7.0 6.9 6.9 6.9 6.8 6.7 6.6 6.4 6.3 6.2 6.2 6.2 6.3 6.3 6.4 6.5 6.5 6.4 6.5 6.4 6.4 6.3 6.3 6.2 5.6 5.7 5.6 5.9 5.9 5.8 5.9 6.1 6.2 6.3 6.2 5.9 6.2 5.9 6.4 6.2 6.3 6.6 7.2 7.0 7.2
6.9 6.9 6.9 7.0 6.9 6.8 6.8 6.7 6.5 6.4 6.3 6.3 6.3 6.3 6.4 6.4 6.5 6.6 6.5 6.4 6.5 6.4 6.3 6.3 6.3 6.2 6.0 5.7 5.6 5.6 5.6 5.8 5.9 5.7 5.8 5.8 5.6 5.6 5.7 5.7 5.5 5.9 5.6 6.1 6.5 7.3 7.1
6.9 6.8 6.9 6.9 6.9 6.7 6.7 6.5 6.4 6.4 6.4 6.4 6.4 6.5 6.5 6.5 6.4 6.5 6.5 6.5 6.5 6.4 6.4 6.1 6.4 5.9 5.5 5.2 5.5 5.3 5.4 5.4 5.3 5.6 5.7 5.5 5.1 5.2 5.5 5.3 5.1 5.0 5.4 5.5 5.9 6.7 7.4
6.9 6.9 6.9 6.9 6.9 6.7 6.6 6.5 6.4 6.5 6.4 6.4 6.5 6.6 6.6 6.5 6.4 6.5 6.5 6.5 6.5 6.4 6.3 6.2 5.6 5.5 5.3 4.9 5.2 4.9 5.1 5.1 4.8 4.9 5.1 5.2 5.3 4.6 4.3 4.5 4.3 4.5 4.8 4.8 5.2 5.9 6.5
7.0 7.0 6.9 6.9 7.0 6.7 6.6 6.6 6.4 6.4 6.5 6.6 6.6 6.6 6.6 6.5 6.5 6.6 6.6 6.5 6.8 6.5 5.8 5.6 5.4 5.5 5.2 5.0 4.4 5.1 5.2 5.4 5.1 5.3 5.1 5.5 5.2 5.2 5.0 5.1 5.1 5.0 4.6 4.9 5.0 5.8 5.9
7.0 7.0 7.0 6.9 6.9 6.7 6.7 6.6 6.5 6.5 6.6 6.6 6.6 6.6 6.6 6.6 6.7 6.7 6.7 6.7 6.4 5.9 5.5 5.1 5.1 4.8 5.0 4.9 5.1 5.6 5.4 5.4 5.4 5.7 5.8 5.5 6.2 6.7 6.4 6.0 5.9 6.2 5.9 5.6 4.7 5.2 6.9
6.9 6.9 7.0 6.9 6.9 6.7 6.6 6.6 6.5 6.6 6.6 6.6 6.5 6.6 6.7 6.8 6.8 6.9 6.8 6.6 6.3 5.7 4.9 4.7 4.8 4.9 4.7 5.0 5.5 5.8 6.2 6.7 6.9 7.0 7.1 7.0 7.3 7.2 7.4 7.6 7.5 7.2 7.1 6.7 6.3 5.9 5.6
6.8 6.8 6.9 7.0 6.9 6.8 6.7 6.7 6.7 6.6 6.6 6.6 6.8 6.8 6.9 6.9 6.9 6.9 6.8 6.4 6.1 5.6 4.3 5.0 5.0 5.1 5.2 6.1 6.5 7.1 6.9 7.1 6.7 7.2 6.9 7.0 7.2 7.1 7.4 7.4 7.6 7.6 7.7 7.6 7.5 7.3 7.0
6.8 6.9 6.9 6.9 6.9 6.8 6.8 6.7 6.6 6.6 6.7 6.8 6.8 6.9 6.9 6.8 6.8 6.7 6.4 6.0 5.7 5.5 4.7 5.1 5.3 5.9 6.4 7.2 7.1 7.2 7.0 7.0 6.9 7.0 6.6 7.0 7.1 7.1 7.0 7.3 7.5 7.6 7.8 7.9 8.1 8.0 7.3
6.9 7.0 7.0 7.1 6.9 6.8 6.9 6.7 6.6 6.6 6.7 6.7 6.9 6.9 6.8 6.7 6.6 6.3 6.0 5.8 5.4 5.3 5.4 5.8 6.3 6.8 7.5 7.4 7.3 7.3 6.8 6.9 6.3 6.0 6.1 6.7 6.7 6.7 7.1 7.3 7.8 7.8 7.5 7.4 7.4 7.4 7.3
7.0 7.0 7.0 7.0 6.9 6.9 6.9 6.7 6.6 6.7 6.7 6.8 6.8 6.7 6.7 6.6 6.2 5.9 5.6 5.7 5.6 5.2 5.6 6.2 7.1 7.8 7.7 7.2 7.2 7.0 7.0 7.0 6.1 5.9 6.1 6.3 6.3 6.4 7.1 7.4 7.3 7.5 7.5 7.5 7.9 7.9 7.7
7.1 7.1 6.9 6.8 6.9 6.8 6.8 6.7 6.6 6.7 6.7 6.7 6.7 6.7 6.7 6.1 5.9 5.7 5.5 5.6 4.6 4.9 5.6 6.8 7.6 8.2 7.9 7.5 7.2 6.9 6.5 6.4 5.8 5.8 5.9 6.1 6.5 6.7 6.9 7.4 7.2 7.4 7.4 7.9 7.7 7.9 7.7
7.0 6.8 6.8 6.8 6.8 6.8 6.8 6.7 6.7 6.7 6.8 6.6 6.5 6.5 6.2 5.9 5.6 5.3 5.4 4.6 4.5 5.3 6.3 7.2 7.7 7.6 7.3 6.9 6.7 6.5 6.3 6.2 6.3 5.9 6.0 6.3 6.3 6.1 6.5 7.6 7.3 7.3 7.6 7.9 7.9 7.1 7.8
6.6 6.6 6.7 6.8 6.8 6.9 6.8 6.7 6.7 6.8 6.7 6.7 6.6 6.5 6.0 5.5 5.0 5.1 5.0 4.3 4.9 6.1 6.9 7.2 7.2 7.1 6.7 6.6 6.6 6.3 6.1 6.0 6.1 6.5 6.2 6.7 6.8 6.5 6.6 5.9 6.1 7.4 7.3 7.7 7.8 8.1 7.5
6.5 6.6 6.7 6.8 6.9 6.9 6.8 6.8 6.8 6.7 6.7 6.5 6.7 6.2 5.8 5.3 5.3 4.5 4.2 4.6 5.5 6.2 7.0 6.9 7.0 6.8 6.5 6.4 6.2 6.2 6.0 5.9 6.0 6.3 6.5 6.8 7.0 6.2 6.0 6.5 6.6 6.7 7.2 7.8 7.7 7.1 6.5
6.5 6.6 6.6 6.8 6.9 6.8 6.8 6.8 6.8 6.7 6.7 6.7 6.7 6.0 5.6 5.4 5.3 4.7 4.3 5.8 6.5 6.9 6.9 6.7 6.6 6.6 6.4 6.2 6.1 6.0 5.7 5.6 6.0 6.1 6.3 6.8 7.1 6.9 6.5 6.6 6.6 6.3 6.2 6.9 6.8 6.7 5.6
6.5 6.5 6.6 6.7 6.8 6.7 6.7 6.9 6.8 6.7 6.7 6.7 6.7 5.9 5.4 4.6 4.3 4.2 4.9 6.2 6.8 6.8 6.5 6.4 6.4 6.5 6.3 5.9 5.7 5.5 5.4 5.6 5.7 5.8 5.8 6.2 6.6 6.3 5.1 5.1 5.5 5.1 5.3 5.7 6.0 5.1 4.9
6.4 6.4 6.5 6.6 6.6 6.6 6.8 6.9 6.8 6.7 6.7 6.6 6.5 6.0 5.7 5.0 4.4 4.6 5.6 6.9 6.9 6.6 6.5 6.4 6.2 6.1 6.0 5.9 5.8 5.5 5.3 5.5 5.4 5.4 5.4 5.6 5.4 5.7 4.9 4.9 5.6 5.2 5.1 5.2 4.7 4.4 4.4
6.1 6.2 6.3 6.4 6.5 6.7 6.9 6.8 6.8 6.8 6.8 6.7 6.5 6.1 5.4 4.4 4.3 4.8 5.6 6.3 6.6 6.3 6.4 6.2 6.0 5.8 6.0 6.0 5.7 5.4 5.2 5.5 5.3 5.3 5.3 5.2 4.7 5.4 5.5 5.9 6.0 4.9 4.5 4.5 4.3 4.3 4.2
5.9 6.0 6.1 6.3 6.4 6.7 6.9 6.8 6.7 6.7 6.8 6.6 6.6 6.2 5.5 4.3 4.5 4.8 5.5 6.4 6.4 6.2 6.0 6.0 5.9 5.8 5.7 5.8 5.5 5.5 5.4 5.3 5.3 5.2 5.5 5.5 5.4 5.6 5.9 6.0 5.6 5.0 4.2 4.2 4.3 4.1 3.9
5.8 5.9 6.1 6.3 6.4 6.7 6.9 6.7 6.7 6.7 6.7 6.6 6.7 6.4 5.5 4.9 4.9 4.9 5.2 6.3 6.6 6.6 6.3 6.4 6.4 6.0 6.1 5.9 5.6 5.4 5.3 5.2 5.3 5.1 5.3 5.5 5.7 5.8 5.8 5.9 4.3 4.3 4.4 4.6 4.5 4.1 4.1
5.9 6.0 6.1 6.2 6.4 6.7 6.7 6.7 6.7 6.7 6.7 6.5 6.8 6.5 6.2 5.1 4.3 4.4 4.6 5.6 6.5 6.5 6.4 6.5 6.3 6.1 6.1 6.0 5.7 5.6 5.2 5.3 5.4 5.1 5.0 5.4 5.7 5.7 5.5 4.7 4.5 4.5 5.0 5.1 5.1 4.5 4.4
6.0 5.9 6.0 6.1 6.3 6.6 6.5 6.6 6.6 6.6 6.7 6.5 6.7 6.2 6.4 6.1 5.5 4.8 4.9 5.3 5.7 6.1 6.3 6.1 5.9 5.9 5.9 5.8 5.6 5.6 5.1 4.9 5.1 5.2 5.0 5.1 5.4 5.9 5.3 4.6 3.5 4.5 4.8 5.0 4.9 4.9 4.5
5.9 5.8 5.9 6.0 6.2 6.4 6.3 6.5 6.6 6.5 6.6 6.4 6.7 6.3 6.5 6.5 6.0 5.2 5.4 5.7 5.9 6.1 6.0 6.2 6.1 5.8 5.8 5.6 5.7 5.5 5.2 4.9 4.5 4.5 4.9 5.1 5.1 5.1 5.0 4.2 4.3 4.3 4.9 4.7 4.6 4.5 3.8
5.8 5.7 5.8 5.8 6.0 6.4 6.3 6.5 6.5 6.4 6.5 6.4 6.6 6.4 6.3 6.7 6.5 5.6 5.5 5.5 5.9 6.1 6.4 6.4 6.2 6.0 5.9 5.6 5.4 5.4 5.3 4.9 4.7 4.7 4.7 4.8 4.7 4.8 4.6 4.2 4.1 4.2 4.2 4.3 4.2 4.2 4.3
5.7 5.6 5.6 5.6 5.8 6.2 6.2 6.3 6.4 6.4 6.4 6.5 6.5 6.3 6.4 6.7 6.6 5.9 5.7 5.6 5.6 5.8 6.1 6.2 6.6 6.3 5.7 5.7 5.5 5.5 5.5 5.3 5.2 4.9 4.9 4.8 4.9 4.7 4.3 4.4 4.4 4.4 3.9 4.0 3.9 3.8 4.2
Wind_Speed
8 6 4 2 2 3 3 4 5 6 6 7 7 7 7 8 9 10 11 12 13 14 15 12 10 11 5 6 5 13 21 19 7 5 6 9 6 5 5 7 9 5 7 9 11 11 4
8 6 4 2 3 2 3 4 5 6 7 7 7 7 8 9 10 11 12 12 12 13 11 9 8 7 2 7 8 17 17 12 9 6 6 8 6 6 5 6 5 9 13 12 8 11 6
8 6 5 3 3 3 4 5 6 7 7 7 7 8 9 10 10 10 11 12 10 7 6 7 5 4 13 4 7 16 16 9 7 7 6 6 8 7 8 9 6 13 9 11 9 7 6
8 6 5 3 3 4 5 6 6 5 6 6 8 10 9 9 8 9 10 11 10 11 11 9 6 2 4 1 11 9 8 9 11 8 6 6 2 5 3 6 8 7 6 5 6 6 7
8 6 5 3 4 5 5 5 5 5 5 7 9 9 7 8 7 7 8 12 13 17 17 13 4 5 3 5 7 8 7 8 7 9 10 8 4 2 6 4 5 4 6 10 9 11 8
8 7 5 4 5 6 5 4 4 5 6 8 9 7 8 10 10 7 10 10 14 14 6 6 6 8 6 4 3 8 12 8 6 11 6 7 2 3 4 5 3 9 9 8 6 9 11
8 6 6 5 6 6 5 5 4 5 7 9 9 8 8 11 12 8 8 4 4 6 10 8 7 8 4 0 4 9 12 8 8 7 8 8 6 5 6 7 10 13 14 15 14 15 18
8 7 6 6 6 7 5 5 5 7 9 9 9 8 8 9 11 9 2 2 5 5 6 6 6 6 2 3 7 10 12 8 8 12 9 8 8 8 10 12 9 10 12 13 10 23 18
8 7 6 7 7 7 6 4 5 7 10 10 7 6 8 6 7 5 3 5 11 10 5 2 2 3 3 2 2 5 8 8 7 10 9 4 2 7 7 7 10 7 10 13 16 21 18
8 7 7 8 7 7 5 4 5 6 9 11 9 6 6 3 4 3 3 6 11 5 4 4 1 2 2 2 2 4 3 3 9 8 5 5 3 8 9 6 6 4 8 11 14 12 5
8 7 8 8 7 7 5 4 4 4 7 12 13 11 8 3 5 3 2 6 4 4 3 1 3 3 3 6 3 7 4 6 6 9 4 6 10 8 7 12 9 7 9 10 8 8 7
8 7 9 8 7 7 5 3 3 4 8 12 17 18 18 3 1 5 7 7 4 5 2 5 3 3 3 7 4 2 13 8 7 5 11 9 6 7 5 10 10 9 8 9 9 3 5
8 8 9 8 8 7 4 2 3 5 9 13 14 17 12 8 1 6 7 2 4 6 3 4 4 3 8 2 4 6 16 17 8 6 7 8 11 6 12 6 8 7 4 3 3 1 7
9 9 8 9 9 7 5 3 4 7 10 14 17 13 5 6 8 7 3 3 8 6 5 3 1 8 7 6 5 10 8 5 8 6 5 4 5 8 11 5 7 8 4 3 3 2 4
9 9 9 9 8 7 5 4 5 8 11 14 17 2 2 1 3 3 4 6 1 6 7 5 8 4 5 9 4 5 6 5 4 6 2 3 2 9 12 13 7 6 4 2 5 2 3
9 9 9 9 9 7 6 5 6 9 10 11 3 3 1 1 2 2 5 4 4 7 7 9 6 6 6 6 5 6 5 4 5 8 7 1 2 11 12 9 8 3 5 2 2 2 3
9 10 10 9 8 6 6 6 7 9 10 9 2 2 3 3 2 4 4 4 6 7 7 8 8 7 7 4 6 4 5 3 6 9 6 3 2 4 9 11 17 11 5 2 3 1 2
10 11 11 9 8 8 7 6 7 8 11 2 2 3 5 3 4 3 3 3 2 5 2 1 6 7 5 6 7 3 5 6 7 6 5 4 1 3 13 17 14 18 16 4 1 4 4
11 12 12 11 10 9 7 6 6 7 10 2 1 1 4 5 4 3 5 6 8 7 6 7 4 6 2 5 4 8 6 7 10 6 4 5 4 2 3 6 12 13 18 20 4 3 14
12 13 13 12 11 9 8 4 4 7 7 2 2 3 4 4 5 7 4 6 5 2 3 2 6 3 5 6 7 4 6 9 7 4 11 7 7 6 7 6 1 7 21 22 13 5 6
13 14 14 13 12 9 6 5 5 10 11 2 3 1 3 1 4 6 5 6 8 3 4 8 3 6 5 3 5 4 7 5 3 6 4 5 5 14 10 13 15 15 20 21 22 12 7
14 14 15 14 12 7 5 4 7 11 18 3 3 3 3 1 5 6 3 6 7 7 5 3 5 5 7 5 5 3 2 3 3 4 3 2 6 4 10 13 21 16 17 17 17 14 5
15 15 16 15 14 10 7 4 6 10 10 2 3 2 4 4 5 5 3 3 6 3 4 8 5 5 7 5 6 12 4 3 2 1 3 3 8 5 3 5 0 8 11 8 8 6 9
17 17 17 16 15 13 10 7 7 9 3 1 0 2 5 2 4 2 5 8 7 6 5 6 6 4 2 1 3 9 2 1 6 4 4 3 1 1 1 1 5 4 6 3 1 2 5
17 17 17 17 16 14 13 12 12 18 20 3 2 3 4 3 4 7 6 6 7 3 7 6 5 2 3 4 1 2 2 1 2 6 7 2 2 3 4 4 3 4 6 4 3 4 1
16 17 17 17 16 15 14 15 16 17 15 4 3 1 4 4 5 9 4 6 2 3 4 4 5 4 2 1 1 1 2 3 4 8 10 8 6 4 4 5 1 6 8 7 7 2 9
15 16 17 17 15 16 16 15 15 16 14 8 3 8 5 4 6 7 3 3 4 4 4 4 3 3 2 1 3 2 1 3 2 2 4 5 4 4 3 3 2 5 8 9 4 5 8
14 15 15 16 15 16 19 21 19 20 20 9 2 15 5 4 4 5 6 6 4 4 3 3 4 5 4 3 3 1 2 2 3 3 4 2 1 1 3 4 1 1 4 4 5 5 4
12 14 14 15 15 15 19 22 23 22 13 10 4 12 9 4 5 2 3 4 4 2 2 4 5 2 4 3 1 3 4 2 5 1 3 3 5 4 4 5 6 4 7 6 5 5 3
Wind_Direction
143 143 123 119 77 38 17 0 347 346 335 330 339 336 334 330 323 317 310 304 300 291 285 296 313 331 328 59 34 345 341 336 277 290 316 325 326 323 342 328 343 299 283 295 279 279 262
149 136 125 103 66 34 9 353 346 344 343 342 340 332 328 324 316 312 308 305 301 293 284 288 304 331 319 72 323 355 349 343 341 339 338 338 339 329 305 306 316 308 303 299 306 302 319
142 137 126 108 70 29 1 353 355 354 354 346 336 331 327 318 312 309 309 310 319 316 284 284 317 316 64 45 2 15 357 334 323 330 319 307 341 6 337 328 319 321 328 317 302 289 290
138 131 115 94 60 34 5 6 2 4 358 344 340 336 330 317 318 313 315 315 321 324 316 304 301 260 88 121 4 24 333 334 324 333 318 283 268 323 276 286 315 314 306 294 318 273 264
132 121 105 82 56 37 22 19 12 4 357 347 341 343 340 336 336 328 318 318 320 324 308 304 319 99 64 104 8 0 334 320 332 318 299 282 106 211 313 300 327 270 250 268 284 256 250
129 116 100 76 56 46 37 39 20 3 353 348 341 344 332 342 2 345 319 305 307 323 295 251 284 67 33 44 336 2 337 348 329 7 3 7 156 177 353 24 320 321 307 294 267 274 262
122 107 90 76 59 54 50 41 21 359 350 350 349 335 326 338 4 5 346 336 14 7 39 77 61 69 14 310 74 14 339 348 19 42 21 333 50 29 343 1 358 338 326 317 316 319 322
115 102 90 74 62 56 53 44 17 355 351 348 350 338 324 328 354 354 335 279 15 166 63 75 91 87 103 300 33 22 351 24 26 38 2 20 39 3 359 354 353 345 335 335 320 334 341
108 96 82 68 60 56 56 49 17 0 7 3 356 336 329 322 324 344 220 5 26 27 114 150 138 61 358 41 105 43 22 339 57 34 4 46 46 351 355 343 353 340 327 326 321 332 327
100 88 70 59 56 55 55 44 21 12 15 19 5 337 338 310 5 207 44 330 34 22 101 148 321 100 315 115 24 130 64 352 20 20 5 304 7 322 314 307 346 328 319 326 327 342 304
96 79 68 59 55 57 51 41 17 5 357 355 2 6 341 267 290 40 354 347 14 48 88 75 115 137 182 110 322 352 126 35 47 354 333 272 337 322 27 5 7 304 357 332 319 302 322
89 74 66 55 53 55 51 35 7 340 325 342 345 344 346 237 341 343 19 335 39 50 283 141 125 356 82 28 125 99 63 36 50 345 3 318 306 49 37 1 356 355 2 317 303 274 246
86 71 63 51 52 51 52 23 339 317 326 337 339 337 342 34 66 354 335 23 45 101 219 73 27 314 96 31 27 8 57 46 43 9 354 320 53 29 13 351 337 10 359 321 334 321 241
81 69 61 51 47 47 46 8 329 319 321 327 333 325 61 56 358 355 22 65 71 286 34 28 303 268 82 49 1 45 54 44 16 31 304 357 356 19 7 359 312 308 218 206 273 349 341
77 66 54 45 42 41 34 4 333 316 317 333 325 298 119 283 360 26 72 55 83 6 359 337 303 5 64 30 7 91 84 54 33 30 74 340 359 355 23 350 27 340 288 241 260 32 193
69 59 48 36 32 29 17 353 334 320 327 352 338 310 35 273 163 56 68 90 83 30 337 328 40 28 58 9 30 33 72 305 359 350 133 291 301 347 29 352 354 238 312 35 18 235 264
60 50 40 30 26 19 3 351 340 333 345 347 353 58 261 304 78 49 105 96 105 55 14 3 29 53 82 357 56 44 50 127 21 357 20 343 200 1 51 30 14 2 357 256 229 10 293
54 44 38 28 23 16 360 350 351 4 340 45 282 53 277 42 49 55 39 58 350 72 78 77 49 50 31 359 34 63 72 36 27 20 11 291 246 85 113 69 19 26 13 353 308 37 338
49 41 34 27 20 12 359 350 1 29 30 12 41 117 313 84 91 38 87 73 40 48 22 19 80 63 357 5 105 31 54 354 46 30 20 320 348 144 170 17 24 28 15 22 40 103 19
45 38 33 27 22 18 12 8 357 20 27 105 69 39 329 17 139 148 159 143 125 346 80 15 131 86 74 44 52 47 28 27 59 50 58 66 10 106 120 122 133 45 36 32 40 45 67
43 38 33 28 21 20 37 25 1 3 356 75 46 288 182 338 13 68 47 75 77 75 104 31 345 99 82 93 59 68 33 344 4 73 48 98 107 116 128 115 76 59 45 39 41 30 46
42 39 36 30 23 31 49 29 16 1 348 65 106 112 9 181 132 94 64 68 43 82 30 29 19 49 90 83 117 115 76 329 357 67 68 35 151 149 122 108 74 46 27 44 38 21 31
44 43 39 36 37 54 67 44 7 357 1 60 311 1 103 304 60 77 24 35 77 41 71 61 26 60 87 81 78 123 160 176 188 133 136 134 163 209 202 124 129 43 11 356 47 17 10
47 44 43 41 45 55 59 45 17 356 290 162 331 55 80 47 81 95 99 81 73 53 62 51 57 87 91 273 301 119 135 330 70 49 101 125 173 0 110 346 50 273 264 268 201 319 34
50 47 46 45 45 58 59 52 41 30 31 75 1 65 108 60 50 48 53 132 145 144 86 79 65 50 312 216 209 115 216 355 331 52 19 222 120 46 88 52 166 354 304 317 119 292 199
52 52 51 51 48 53 52 47 41 34 33 48 9 90 78 100 332 312 76 32 106 143 101 132 157 181 282 119 327 75 86 357 10 351 351 7 34 105 59 80 105 249 298 329 119 38 355
53 52 54 56 57 55 52 49 43 36 42 57 2 47 77 103 351 31 28 352 12 346 112 46 9 5 163 39 50 45 76 46 44 42 317 336 358 76 83 102 239 260 308 329 59 259 309
50 53 53 57 58 54 53 50 46 40 55 67 16 68 102 104 36 47 45 41 3 14 97 266 35 356 14 47 99 269 92 166 86 202 163 126 77 10 22 73 303 337 353 107 222 285 269
43 50 54 51 54 60 65 55 52 48 59 64 56 59 73 92 181 131 108 88 59 29 140 18 152 140 215 70 36 68 26 86 158 285 79 12 160 167 147 203 229 230 206 236 212 229 326